TimeCST,TemperatureF,Dew PointF,Humidity,Sea Level PressureIn,VisibilityMPH,Wind Direction,Wind SpeedMPH,Gust SpeedMPH,PrecipitationIn,Events,Conditions,WindDirDegrees,DateUTC
12:53 AM,37.0,28.0,70,30.19,10.0,SSE,8.1,-,N/A,,Scattered Clouds,150,2013-11-20 06:53:00
1:53 AM,37.9,28.0,68,30.18,10.0,SSE,11.5,-,N/A,,Mostly Cloudy,160,2013-11-20 07:53:00
2:53 AM,37.9,28.0,68,30.17,10.0,SE,11.5,-,N/A,,Scattered Clouds,140,2013-11-20 08:53:00
3:53 AM,37.0,28.0,70,30.15,10.0,SSE,11.5,-,N/A,,Clear,150,2013-11-20 09:53:00
4:53 AM,37.0,28.0,70,30.13,10.0,SSE,13.8,-,N/A,,Overcast,160,2013-11-20 10:53:00
5:53 AM,37.0,28.0,70,30.12,10.0,SSE,11.5,-,N/A,,Partly Cloudy,150,2013-11-20 11:53:00
6:53 AM,37.0,28.0,70,30.13,10.0,SSE,15.0,-,N/A,,Mostly Cloudy,150,2013-11-20 12:53:00
7:53 AM,37.0,28.0,70,30.15,10.0,South,13.8,23.0,N/A,,Overcast,170,2013-11-20 13:53:00
8:53 AM,37.0,28.9,73,30.17,10.0,SSE,11.5,-,N/A,,Overcast,150,2013-11-20 14:53:00
9:53 AM,37.9,28.9,70,30.16,10.0,SSE,10.4,-,N/A,,Overcast,160,2013-11-20 15:53:00
10:53 AM,39.0,28.9,67,30.14,10.0,SSE,13.8,-,N/A,,Overcast,160,2013-11-20 16:53:00
11:53 AM,37.9,33.1,83,30.09,4.0,SSE,11.5,-,0.01,Rain,Light Rain,160,2013-11-20 17:53:00
12:53 PM,37.0,34.0,89,30.05,2.5,SSE,17.3,25.3,0.10,Rain,Rain,160,2013-11-20 18:53:00
1:11 PM,37.4,35.6,93,30.03,5.0,South,16.1,23.0,0.04,Rain,Light Rain,170,2013-11-20 19:11:00
1:51 PM,37.4,-9999,N/A,30.03,2.5,South,9.2,-,0.11,Rain,Rain,170,2013-11-20 19:51:00
1:53 PM,37.0,-9999,N/A,30.04,2.5,South,9.2,-,0.12,Rain,Rain,170,2013-11-20 19:53:00
2:05 PM,37.4,-9999,N/A,30.01,3.0,SSE,10.4,-,0.03,Rain,Rain,150,2013-11-20 20:05:00
2:13 PM,37.4,-9999,N/A,30.02,2.5,South,6.9,-,0.05,Rain,Rain,170,2013-11-20 20:13:00
2:53 PM,37.0,-9999,N/A,30.02,4.0,SSE,8.1,-,0.13,Rain,Light Rain,150,2013-11-20 20:53:00
3:04 PM,37.4,-9999,N/A,30.01,6.0,SSE,8.1,-,0.00,Rain,Light Rain,160,2013-11-20 21:04:00
3:53 PM,37.9,-9999,N/A,30.03,4.0,SE,4.6,-,0.01,Rain,Light Rain,140,2013-11-20 21:53:00
4:53 PM,37.9,-9999,N/A,30.03,5.0,ESE,5.8,-,0.06,Rain,Light Rain,120,2013-11-20 22:53:00
5:10 PM,37.4,-9999,N/A,30.03,5.0,SE,5.8,-,0.01,Rain-Thunderstorm,Light Rain,140,2013-11-20 23:10:00
5:19 PM,37.4,-9999,N/A,30.02,3.0,ESE,6.9,-,0.02,Rain,Light Rain,110,2013-11-20 23:19:00
5:33 PM,37.4,-9999,N/A,29.99,5.0,ESE,10.4,-,0.02,Rain,Light Rain,110,2013-11-20 23:33:00
5:53 PM,37.9,-9999,N/A,30.03,6.0,ESE,10.4,-,0.02,,Haze,110,2013-11-20 23:53:00
6:10 PM,37.4,-9999,N/A,30.05,6.0,SSE,6.9,-,N/A,,Haze,160,2013-11-21 00:10:00
6:35 PM,37.4,-9999,N/A,30.04,7.0,SE,10.4,-,N/A,,Overcast,140,2013-11-21 00:35:00
6:53 PM,37.9,-9999,N/A,30.06,6.0,SSE,9.2,-,N/A,,Haze,150,2013-11-21 00:53:00
7:41 PM,39.2,-9999,N/A,30.04,6.0,SSE,8.1,-,N/A,,Haze,150,2013-11-21 01:41:00
7:53 PM,39.0,-9999,N/A,30.06,6.0,SSE,5.8,-,N/A,,Haze,150,2013-11-21 01:53:00
8:05 PM,39.2,-9999,N/A,30.05,6.0,SSE,5.8,-,N/A,,Haze,160,2013-11-21 02:05:00
8:53 PM,39.0,-9999,N/A,30.06,6.0,SSE,5.8,-,N/A,,Haze,160,2013-11-21 02:53:00
9:53 PM,39.9,39.9,100,30.06,6.0,SSE,5.8,-,N/A,,Overcast,150,2013-11-21 03:53:00
10:53 PM,39.9,39.9,100,30.06,7.0,SSE,6.9,-,N/A,,Overcast,160,2013-11-21 04:53:00
11:53 PM,42.1,39.0,89,30.06,9.0,South,8.1,-,N/A,,Overcast,180,2013-11-21 05:53:00